| time (UTC) | temp C | wind direction | speed KPH | gust KPH | rain 1hr cm | rain 24hr cm | rain mn cm | humidity % | barometer mb |
| 20260505124516 | 16 | 308 | 0.0 | 3.2 | 0.00 | 0.03 | 0.03 | 74 | 1012.0 |
| 20260505123015 | 15 | 82 | 0.0 | 4.8 | 0.00 | 0.03 | 0.03 | 75 | 1011.6 |
| 20260505121518 | 13 | 349 | 0.0 | 3.2 | 0.00 | 0.03 | 0.03 | 79 | 1011.7 |
| 20260505120017 | 12 | 339 | 0.0 | 1.6 | 0.00 | 0.03 | 0.03 | 86 | 1011.5 |
| 20260505114510 | 11 | 172 | 0.0 | 3.2 | 0.00 | 0.03 | 0.03 | 92 | 1011.4 |
| 20260505113012 | 11 | 172 | 0.0 | 1.6 | 0.00 | 0.03 | 0.03 | 92 | 1011.3 |
| 20260505111532 | 10 | 172 | 0.0 | 3.2 | 0.00 | 0.03 | 0.03 | 91 | 1011.3 |
| 20260505101517 | 10 | 184 | 0.0 | 3.2 | 0.00 | 0.03 | 0.03 | 88 | 1010.9 |
| 20260505100021 | 11 | 142 | 0.0 | 1.6 | 0.00 | 0.03 | 0.03 | 88 | 1011.0 |
| 20260505094522 | 11 | 142 | 0.0 | 1.6 | 0.03 | 0.03 | 0.03 | 86 | 1010.7 |
| 20260505093022 | 11 | 134 | 0.0 | 1.6 | 0.03 | 0.03 | 0.03 | 85 | 1011.1 |
| 20260505091522 | 12 | 134 | 0.0 | 4.8 | 0.03 | 0.03 | 0.03 | 83 | 1011.0 |
| 20260505090024 | 13 | 134 | 0.0 | 4.8 | 0.03 | 0.03 | 0.03 | 79 | 1010.9 |
| 20260505084526 | 13 | 190 | 0.0 | 3.2 | 0.00 | 0.00 | 0.00 | 72 | 1010.9 |
| 20260505083019 | 14 | 109 | 0.0 | 0.0 | 0.00 | 0.00 | 0.00 | 71 | 1010.8 |
| 20260505081526 | 15 | 109 | 0.0 | 1.6 | 0.00 | 0.00 | 0.00 | 69 | 1010.5 |
| 20260505080012 | 15 | 109 | 0.0 | 1.6 | 0.00 | 0.00 | 0.00 | 69 | 1010.4 |
| 20260505074509 | 15 | 115 | 0.0 | 3.2 | 0.00 | 0.00 | 0.00 | 69 | 1010.5 |
| 20260505073009 | 14 | 115 | 0.0 | 1.6 | 0.00 | 0.00 | 0.00 | 69 | 1010.4 |
| 20260505071523 | 13 | 115 | 0.0 | 3.2 | 0.00 | 0.00 | 0.00 | 69 | 1010.6 |
| 20260505070007 | 13 | 117 | 0.0 | 1.6 | 0.00 | 0.00 | 0.00 | 69 | 1010.6 |
| 20260505064523 | 13 | 136 | 0.0 | 1.6 | 0.00 | 0.00 | 0.00 | 70 | 1010.5 |
| 20260505063016 | 13 | 108 | 0.0 | 3.2 | 0.00 | 0.00 | 0.00 | 69 | 1010.6 |
| 20260505061514 | 13 | 133 | 0.0 | 0.0 | 0.00 | 0.00 | 0.00 | 67 | 1010.7 |
| 20260505060012 | 13 | 133 | 0.0 | 0.0 | 0.00 | 0.00 | 0.00 | 67 | 1010.6 |
| 20260505054515 | 13 | 133 | 0.0 | 3.2 | 0.00 | 0.00 | 0.00 | 67 | 1010.6 |
| 20260505053023 | 13 | 133 | 0.0 | 3.2 | 0.00 | 0.00 | 0.00 | 66 | 1010.6 |
| 20260505051509 | 13 | 130 | 0.0 | 4.8 | 0.00 | 0.00 | 0.00 | 65 | 1010.7 |
| 20260505041526 | 14 | 145 | 0.0 | 1.6 | 0.00 | 0.00 | 0.00 | 62 | 1010.8 |
| 20260505040032 | 14 | 145 | 0.0 | 3.2 | 0.00 | 0.00 | 0.00 | 64 | 1010.5 |
| 20260505034515 | 15 | 145 | 0.0 | 1.6 | 0.00 | 0.00 | 0.00 | 62 | 1010.5 |
| 20260505033015 | 15 | 145 | 0.0 | 1.6 | 0.00 | 0.00 | 0.00 | 63 | 1010.5 |
| 20260505031518 | 15 | 145 | 0.0 | 3.2 | 0.00 | 0.00 | 0.00 | 60 | 1010.6 |
| 20260505030024 | 16 | 145 | 0.0 | 3.2 | 0.00 | 0.00 | 0.00 | 59 | 1010.8 |
| 20260505024524 | 16 | 123 | 0.0 | 3.2 | 0.00 | 0.00 | 0.00 | 58 | 1010.6 |
| 20260505023024 | 16 | 132 | 1.6 | 9.7 | 0.00 | 0.00 | 0.00 | 54 | 1010.7 |
| 20260505021525 | 16 | 19 | 0.0 | 3.2 | 0.00 | 0.00 | 0.00 | 58 | 1011.0 |
| 20260505020021 | 16 | 144 | 0.0 | 4.8 | 0.00 | 0.00 | 0.00 | 56 | 1011.0 |
| 20260505014517 | 16 | 124 | 0.0 | 3.2 | 0.00 | 0.00 | 0.00 | 55 | 1010.9 |
| 20260505013018 | 16 | 207 | 0.0 | 3.2 | 0.00 | 0.00 | 0.00 | 52 | 1010.8 |
| 20260505011527 | 17 | 154 | 0.0 | 1.6 | 0.00 | 0.00 | 0.00 | 53 | 1010.6 |
| 20260505010028 | 17 | 157 | 0.0 | 3.2 | 0.00 | 0.00 | 0.00 | 50 | 1010.6 |
| 20260505004526 | 17 | 153 | 0.0 | 4.8 | 0.00 | 0.00 | 0.00 | 50 | 1010.5 |
| 20260505003024 | 17 | 109 | 0.0 | 1.6 | 0.00 | 0.00 | 0.00 | 49 | 1010.4 |
| 20260505001526 | 18 | 109 | 0.0 | 3.2 | 0.00 | 0.00 | 0.00 | 47 | 1010.2 |
| 20260505000023 | 18 | 89 | 0.0 | 3.2 | 0.00 | 0.00 | 0.00 | 47 | 1010.2 |
| 20260504234525 | 18 | 140 | 0.0 | 6.4 | 0.00 | 0.00 | 0.00 | 45 | 1010.0 |
| 20260504233028 | 18 | 71 | 0.0 | 3.2 | 0.00 | 0.00 | 0.00 | 45 | 1010.0 |
| 20260504231526 | 19 | 146 | 1.6 | 6.4 | 0.00 | 0.00 | 0.00 | 45 | 1009.9 |
| 20260504230012 | 20 | 13 | 1.6 | 4.8 | 0.00 | 0.00 | 0.00 | 43 | 1009.8 |
| 20260504224506 | 20 | 118 | 0.0 | 4.8 | 0.00 | 0.00 | 0.00 | 42 | 1009.7 |
| 20260504223004 | 20 | 181 | 0.0 | 14.5 | 0.00 | 0.00 | 0.00 | 43 | 1009.7 |
| 20260504221505 | 20 | 127 | 1.6 | 9.7 | 0.00 | 0.00 | 0.00 | 44 | 1009.8 |
| 20260504220005 | 21 | 107 | 1.6 | 9.7 | 0.00 | 0.00 | 0.00 | 42 | 1009.8 |
| 20260504214521 | 21 | 311 | 1.6 | 12.9 | 0.00 | 0.00 | 0.00 | 39 | 1009.9 |
| 20260504213012 | 21 | 206 | 1.6 | 11.3 | 0.00 | 0.00 | 0.00 | 37 | 1009.9 |
| 20260504211512 | 21 | 263 | 0.0 | 17.7 | 0.00 | 0.00 | 0.00 | 38 | 1009.9 |
| 20260504210006 | 21 | 257 | 3.2 | 16.1 | 0.00 | 0.00 | 0.00 | 38 | 1009.9 |
| 20260504204504 | 22 | 157 | 1.6 | 12.9 | 0.00 | 0.00 | 0.00 | 38 | 1010.0 |
| 20260504203011 | 21 | 237 | 8.0 | 22.5 | 0.00 | 0.00 | 0.00 | 39 | 1010.0 |
| 20260504201507 | 21 | 134 | 1.6 | 22.5 | 0.00 | 0.00 | 0.00 | 38 | 1010.2 |
| 20260504200032 | 21 | 275 | 3.2 | 17.7 | 0.00 | 0.00 | 0.00 | 40 | 1010.3 |
| 20260504194520 | 21 | 248 | 4.8 | 17.7 | 0.00 | 0.00 | 0.00 | 40 | 1010.4 |
| 20260504193012 | 21 | 253 | 8.0 | 20.9 | 0.00 | 0.00 | 0.00 | 39 | 1010.6 |
| 20260504191520 | 21 | 219 | 1.6 | 16.1 | 0.00 | 0.00 | 0.00 | 39 | 1010.7 |
| 20260504190016 | 21 | 254 | 6.4 | 17.7 | 0.00 | 0.00 | 0.00 | 40 | 1010.8 |
| 20260504184515 | 21 | 242 | 1.6 | 22.5 | 0.00 | 0.00 | 0.00 | 38 | 1011.0 |
| 20260504183027 | 21 | 250 | 8.0 | 19.3 | 0.00 | 0.00 | 0.00 | 41 | 1011.1 |
| 20260504181523 | 21 | 298 | 3.2 | 19.3 | 0.00 | 0.00 | 0.00 | 40 | 1011.2 |
| 20260504180017 | 21 | 273 | 1.6 | 9.7 | 0.00 | 0.00 | 0.00 | 43 | 1011.6 |
| 20260504174515 | 20 | 277 | 3.2 | 14.5 | 0.00 | 0.00 | 0.00 | 38 | 1011.8 |
| 20260504173026 | 20 | 168 | 1.6 | 24.1 | 0.00 | 0.00 | 0.00 | 42 | 1012.0 |
| 20260504171521 | 20 | 252 | 4.8 | 19.3 | 0.00 | 0.00 | 0.00 | 44 | 1012.3 |